Location: La Comballaz
(46.3780°N, 7.0817°E)
Time: 05:46:40
(UTC+00:00)

N. Korean satellite - Visible Passes

Search period start: 07 December 2021 00:00
Search period end: 17 December 2021 00:00
Orbit: 446 x 495 km, 97.3° (Epoch: 06 December)

Date Brightness Start Highest point End Pass type
(mag) Time Alt. Az. Time Alt. Az. Time Alt. Az.
07 Dec 6.2 04:58:37 10° N 05:02:01 80° WNW 05:05:23 10° SSW visible
07 Dec 10.0 17:10:45 10° WSW 17:11:49 11° W 17:12:54 10° WNW visible
08 Dec 7.6 04:30:13 10° NNE 04:33:27 41° E 04:36:40 10° S visible
08 Dec 8.2 06:04:33 10° NNW 06:06:18 14° WNW 06:08:02 10° W visible
08 Dec 9.2 16:40:12 10° SSW 16:43:04 23° W 16:45:54 10° NW visible
09 Dec 9.2 04:02:17 10° NE 04:04:45 19° E 04:07:13 10° SE visible
09 Dec 7.3 05:35:04 10° N 05:37:58 27° WNW 05:40:53 10° SW visible
10 Dec 6.3 05:06:11 10° N 05:09:40 62° W 05:12:52 10° SSW visible
11 Dec 7.4 04:37:39 10° NNE 04:41:38 44° SE 04:44:17 10° S visible
11 Dec8.906:15:44W06:15:44W06:11:45NNWvisible
11 Dec 9.5 16:48:04 10° SW 16:50:37 19° W 16:53:09 10° NW visible
12 Dec 8.9 04:13:18 20° ESE 04:13:18 20° ESE 04:15:03 10° SSE visible
12 Dec 8.4 05:47:24 14° WSW 05:47:24 14° WSW 05:48:07 10° WSW visible
12 Dec 8.0 16:18:36 10° S 16:21:54 41° W 16:25:11 10° NNW visible
13 Dec 8.0 05:18:57 21° SW 05:18:57 21° SW 05:20:16 10° SSW visible
14 Dec 8.3 04:50:25 22° S 04:50:25 22° S 04:51:48 10° S visible
14 Dec 9.6 16:55:58 10° SW 16:58:06 15° W 17:00:14 10° NW visible
15 Dec 9.1 04:21:51 16° SSE 04:21:51 16° SSE 04:22:44 10° SSE visible
15 Dec9.105:55:57WSW05:55:57WSW05:48:52Nvisible
15 Dec 8.5 16:26:12 10° SSW 16:29:20 33° W 16:32:28 10° NNW visible
16 Dec 8.8 05:27:20 11° SW 05:27:20 11° SW 05:27:33 10° SW visible
